Zurück zum Katalog

STARLINK-32703

AktivKommunikationVLEO
NORAD 62996·PAYLOAD·🇺🇸 United States

Gestartet Feb 11, 2025 von Cape Canaveral Space Force Station

Loading…

Nächste Überflüge (nächste 24 Stunden)

TLE

AktuellSource: CelesTrak SupGP

Epoche: Sep 15, 2026, 02:46 UTC

1 62996C 25031R   26258.11576389  .00033901  00000+0  12278-2 0  2581
2 62996  42.9997 153.8785 0001414 276.5982  17.1257 15.27564265    17

Verfolge STARLINK-32703 in Echtzeit mit AllMySat

Download on the App Store